Home   Weather   San José de Mayo   Past weeks
Flag for Uruguay

Past Weather in San José de Mayo, Uruguay — Yesterday and Last 2 Weeks

Now
70 °F

Passing clouds.


Feels Like: 70 °F
Forecast: 64 / 83 °F
Wind: 5 mph from West

Location: Carrasco

Current Time: Jan 16, 2019 at 2:53:06 am

Latest Report: Jan 16, 2019 at 2:00 am


Visibility: N/A

Pressure: 29.71 "Hg

Humidity: 94%

Dew Point: 68 °F

Location of San José de MayoLocation

Past Weather in San José de Mayo — Graph

°F

San José de Mayo Temperature Yesterday

Maximum temperature yesterday: 72 °F (at 12:00 am)
Minimum temperature yesterday: 70 °F (at 3:00 am)
Average temperature yesterday: 71 °F

High & Low Weather Summary for the Past Weeks

 TemperatureHumidityPressure
High90 °F (Jan 6, 4:00 pm)100% (Jan 7, 11:21 am)30.15 "Hg (Jan 7, 11:21 am)
Low54 °F (Jan 4, 5:00 am)31% (Jan 5, 3:00 pm)29.36 "Hg (Jan 7, 12:20 pm)
Average72 °F75%29.84 "Hg
* Reported Jan 1 1:00 am — Jan 16 1:00 am, San José de Mayo. Weather by CustomWeather, © 2019

Note: Actual official high and low records may vary slightly from our data, if they occured in-between our weather recording intervals... More about our weather records

Advertising

San José de Mayo Weather History for the Previous 24 Hours

Scroll right to see more
 ConditionsComfort  
Time TempWeatherWind HumidityBarometerVisibility
1:00 am
Wed, Jan 16
70 °FPassing clouds.2 mph94%29.71 "HgN/A
12:00 am70 °FMostly cloudy.3 mph94%29.71 "HgN/A
11:00 pm
Tue, Jan 15
70 °FLight rain. Mostly cloudy.10 mph94%29.74 "Hg4 mi
10:17 pm72 °FRain. Fog.13 mph88%29.74 "Hg2 mi
10:00 pm72 °FMostly cloudy.9 mph94%29.74 "Hg5 mi
9:00 pm70 °FMostly cloudy.12 mph94%29.71 "Hg5 mi
8:00 pm72 °FDrizzle. Mostly cloudy.10 mph94%29.71 "Hg4 mi
7:00 pm70 °FLight rain. Fog.9 mph94%29.71 "Hg1 mi
6:00 pm70 °FLight rain. Fog.9 mph94%29.74 "Hg2 mi
5:26 pm72 °FRain. Fog.10 mph94%29.74 "Hg1 mi
5:00 pm72 °FRain. Fog.12 mph94%29.77 "Hg2 mi
4:19 pm72 °FLight rain. Mostly cloudy.14 mph88%29.77 "Hg2 mi
4:00 pm72 °FMostly cloudy.14 mph88%29.77 "HgN/A
3:00 pm72 °FLight rain. Mostly cloudy.14 mph94%29.80 "HgN/A
2:30 pm72 °FLight rain. Mostly cloudy.14 mph94%29.80 "Hg6 mi
2:05 pm72 °FLight rain. Mostly cloudy.14 mph88%29.80 "Hg2 mi
2:00 pm72 °FLight rain. Mostly cloudy.14 mph88%29.83 "Hg5 mi
1:00 pm72 °FLight rain. Mostly cloudy.12 mph88%29.83 "HgN/A
12:00 pm72 °FLight rain. Mostly cloudy.12 mph88%29.83 "Hg5 mi
11:00 am72 °FLight rain. Mostly cloudy.10 mph88%29.86 "Hg4 mi
10:34 am72 °FLight rain. Mostly cloudy.8 mph88%29.86 "Hg5 mi
10:00 am72 °FMostly cloudy.8 mph88%29.89 "HgN/A
9:13 am72 °FMostly cloudy.13 mph88%29.86 "HgN/A
9:00 am72 °FMore clouds than sun.8 mph88%29.86 "HgN/A
8:00 am72 °FOvercast.7 mph88%29.89 "HgN/A
7:00 am70 °FMostly cloudy.5 mph94%29.86 "HgN/A
6:00 am72 °FMostly cloudy.6 mph83%29.89 "HgN/A
5:00 am70 °FOvercast.6 mph94%29.89 "HgN/A
4:00 am70 °FMostly cloudy.9 mph94%29.86 "HgN/A
3:00 am70 °FMostly cloudy.10 mph94%29.86 "HgN/A
2:00 am72 °FPassing clouds.10 mph88%29.89 "HgN/A
Weather by CustomWeather, © 2019

See weather overview